EN

Hourly Weather Bartoszowka

Today, 16 January, Saturday

Time Temperature Precipitation Wind Pressure Humidity
00:00 -12°C° 0 mm 2 mps 748 mmHg 88%
01:00 -12°C° 0 mm 2 mps 748 mmHg 89%
02:00 -10°C° 0 mm 2 mps 748 mmHg 90%
03:00 -10°C° 0 mm 2 mps 748 mmHg 92%
04:00 -10°C° 0 mm 2 mps 748 mmHg 94%
05:00 -9°C° 0 mm 2 mps 748 mmHg 94%
06:00 -10°C° 0 mm 3 mps 748 mmHg 94%
07:00 -10°C° 0 mm 3 mps 748 mmHg 94%
08:00 -9°C° 0 mm 3 mps 747 mmHg 93%
09:00 -9°C° 0 mm 4 mps 747 mmHg 92%
10:00 -8°C° 0 mm 5 mps 746 mmHg 91%
11:00 -8°C° 0.2 mm 6 mps 746 mmHg 90%
12:00 -8°C° 0.2 mm 7 mps 745 mmHg 88%
13:00 -8°C° 0.2 mm 8 mps 744 mmHg 86%
14:00 -9°C° 0.3 mm 9 mps 744 mmHg 88%
15:00 -9°C° 0.3 mm 9 mps 743 mmHg 90%
16:00 -10°C° 0.3 mm 9 mps 743 mmHg 92%
17:00 -11°C° 0.3 mm 8 mps 743 mmHg 92%
18:00 -11°C° 0.3 mm 6 mps 743 mmHg 91%
19:00 -12°C° 0.3 mm 5 mps 743 mmHg 91%
20:00 -12°C° 0.1 mm 5 mps 743 mmHg 90%
21:00 -13°C° 0.1 mm 5 mps 744 mmHg 89%
22:00 -14°C° 0.1 mm 4 mps 744 mmHg 88%
23:00 -15°C° 0 mm 4 mps 744 mmHg 89%

Tomorrow, 17 January, Sunday

Time Temperature Precipitation Wind Pressure Humidity
00:00 -16°C° 0 mm 4 mps 745 mmHg 89%
01:00 -17°C° 0 mm 4 mps 745 mmHg 90%
02:00 -18°C° 0 mm 4 mps 746 mmHg 90%
03:00 -19°C° 0 mm 4 mps 746 mmHg 90%
04:00 -19°C° 0 mm 4 mps 746 mmHg 90%
05:00 -20°C° 0 mm 4 mps 747 mmHg 90%
06:00 -19°C° 0 mm 3 mps 747 mmHg 91%
07:00 -21°C° 0 mm 3 mps 748 mmHg 91%
08:00 -18°C° 0 mm 2 mps 748 mmHg 90%
09:00 -18°C° 0 mm 2 mps 749 mmHg 89%
10:00 -18°C° 0 mm 2 mps 749 mmHg 88%
11:00 -17°C° 0 mm 2 mps 749 mmHg 87%
12:00 -14°C° 0 mm 1 mps 749 mmHg 85%
13:00 -14°C° 0 mm 1 mps 750 mmHg 83%
14:00 -14°C° 0 mm 1 mps 750 mmHg 86%
15:00 -14°C° 0 mm 1 mps 750 mmHg 88%
16:00 -14°C° 0 mm 1 mps 750 mmHg 90%
17:00 -15°C° 0 mm 1 mps 750 mmHg 91%
18:00 -15°C° 0 mm 1 mps 750 mmHg 92%
19:00 -15°C° 0 mm 1 mps 751 mmHg 93%
20:00 -15°C° 0 mm 1 mps 751 mmHg 93%
21:00 -15°C° 0 mm 1 mps 751 mmHg 92%
22:00 -15°C° 0 mm 0 mps 751 mmHg 92%
23:00 -15°C° 0 mm 1 mps 751 mmHg 92%

Day after tomorrow, 18 January, Monday

Time Temperature Precipitation Wind Pressure Humidity
00:00 -15°C° 0 mm 1 mps 751 mmHg 92%
01:00 -15°C° 0 mm 1 mps 751 mmHg 92%
02:00 -15°C° 0 mm 1 mps 751 mmHg 92%
03:00 -15°C° 0 mm 1 mps 751 mmHg 92%
04:00 -15°C° 0 mm 1 mps 751 mmHg 93%
05:00 -15°C° 0 mm 1 mps 751 mmHg 93%
06:00 -15°C° 0 mm 0 mps 751 mmHg 93%
07:00 -15°C° 0 mm 0 mps 752 mmHg 92%
08:00 -14°C° 0 mm 0 mps 752 mmHg 90%
09:00 -13°C° 0 mm 1 mps 752 mmHg 88%
10:00 -13°C° 0 mm 1 mps 751 mmHg 85%
11:00 -12°C° 0 mm 1 mps 751 mmHg 84%
12:00 -11°C° 0 mm 1 mps 751 mmHg 82%
13:00 -12°C° 0 mm 2 mps 751 mmHg 80%
14:00 -10°C° 0 mm 1 mps 751 mmHg 83%
15:00 -11°C° 0 mm 1 mps 750 mmHg 85%
16:00 -11°C° 0 mm 0 mps 750 mmHg 88%
17:00 -11°C° 0 mm 1 mps 750 mmHg 88%
18:00 -11°C° 0 mm 1 mps 750 mmHg 88%
19:00 -11°C° 0 mm 1 mps 750 mmHg 89%
20:00 -13°C° 0 mm 2 mps 750 mmHg 89%
21:00 -13°C° 0 mm 2 mps 750 mmHg 89%
22:00 -13°C° 0 mm 2 mps 750 mmHg 90%
23:00 -13°C° 0 mm 2 mps 750 mmHg 90%

19 January, Tuesday

Time Temperature Precipitation Wind Pressure Humidity
00:00 -13°C° 0 mm 2 mps 749 mmHg 90%
01:00 -12°C° 0 mm 2 mps 749 mmHg 91%
02:00 -12°C° 0 mm 2 mps 749 mmHg 92%
03:00 -10°C° 0 mm 2 mps 748 mmHg 93%
04:00 -10°C° 0 mm 2 mps 748 mmHg 95%
05:00 -9°C° 0.1 mm 2 mps 748 mmHg 95%
06:00 -8°C° 0.1 mm 2 mps 748 mmHg 96%
07:00 -7°C° 0.1 mm 2 mps 748 mmHg 96%
08:00 -5°C° 0.2 mm 2 mps 748 mmHg 96%
09:00 -5°C° 0.2 mm 3 mps 748 mmHg 97%
10:00 -4°C° 0.2 mm 3 mps 748 mmHg 97%
11:00 -2°C° 0 mm 3 mps 748 mmHg 97%
12:00 -2°C° 0 mm 3 mps 747 mmHg 97%
13:00 -1°C° 0 mm 3 mps 747 mmHg 97%
14:00 -2°C° 0 mm 3 mps 747 mmHg 96%
15:00 -2°C° 0 mm 3 mps 747 mmHg 95%
16:00 -2°C° 0 mm 3 mps 746 mmHg 94%
17:00 -4°C° 0 mm 3 mps 746 mmHg 93%
18:00 -4°C° 0 mm 4 mps 746 mmHg 93%
19:00 -4°C° 0 mm 4 mps 746 mmHg 92%
20:00 -4°C° 0 mm 4 mps 746 mmHg 91%
21:00 -5°C° 0 mm 5 mps 746 mmHg 90%
22:00 -5°C° 0 mm 5 mps 745 mmHg 89%
23:00 -5°C° 0.1 mm 5 mps 745 mmHg 91%

20 January, Wednesday

Time Temperature Precipitation Wind Pressure Humidity
00:00 -4°C° 0.1 mm 5 mps 745 mmHg 93%
01:00 -4°C° 0.1 mm 5 mps 744 mmHg 95%
02:00 -4°C° 0.2 mm 5 mps 744 mmHg 95%
03:00 -2°C° 0.2 mm 5 mps 744 mmHg 94%
04:00 -2°C° 0.2 mm 5 mps 744 mmHg 94%
05:00 -2°C° 0.1 mm 5 mps 743 mmHg 93%
06:00 -2°C° 0.1 mm 5 mps 743 mmHg 93%
07:00 -2°C° 0.1 mm 5 mps 743 mmHg 92%
08:00 -1°C° 0 mm 5 mps 743 mmHg 93%
09:00 -1°C° 0 mm 5 mps 743 mmHg 93%
10:00 -1°C° 0 mm 5 mps 743 mmHg 94%
11:00 -1°C° 0 mm 5 mps 743 mmHg 93%
12:00 0°C° 0 mm 5 mps 742 mmHg 92%
13:00 0°C° 0 mm 5 mps 742 mmHg 92%
14:00 0°C° 0 mm 5 mps 742 mmHg 89%
15:00 0°C° 0 mm 5 mps 742 mmHg 86%
16:00 0°C° 0 mm 5 mps 742 mmHg 84%
17:00 -1°C° 0 mm 5 mps 742 mmHg 82%
18:00 -2°C° 0 mm 6 mps 742 mmHg 81%
19:00 -2°C° 0 mm 6 mps 742 mmHg 80%
20:00 -2°C° 0 mm 6 mps 742 mmHg 81%
21:00 -2°C° 0 mm 6 mps 741 mmHg 81%
22:00 -1°C° 0 mm 5 mps 741 mmHg 82%
23:00 -1°C° 0 mm 5 mps 741 mmHg 82%

21 January, Thursday

Time Temperature Precipitation Wind Pressure Humidity
00:00 -1°C° 0 mm 5 mps 741 mmHg 82%
01:00 -2°C° 0 mm 5 mps 741 mmHg 82%
02:00 -2°C° 0 mm 5 mps 741 mmHg 83%
03:00 -2°C° 0 mm 5 mps 740 mmHg 83%
04:00 -2°C° 0 mm 5 mps 740 mmHg 84%
05:00 -3°C° 0 mm 4 mps 740 mmHg 84%
06:00 -3°C° 0 mm 4 mps 740 mmHg 85%
07:00 -3°C° 0 mm 4 mps 739 mmHg 85%
08:00 -2°C° 0 mm 4 mps 739 mmHg 86%
09:00 -2°C° 0 mm 4 mps 739 mmHg 86%
10:00 -1°C° 0 mm 4 mps 739 mmHg 87%
11:00 0°C° 0 mm 4 mps 739 mmHg 90%
12:00 +1°C° 0 mm 3 mps 739 mmHg 92%
13:00 +1°C° 0 mm 3 mps 738 mmHg 95%
14:00 0°C° 0 mm 4 mps 738 mmHg 93%
15:00 0°C° 0 mm 4 mps 738 mmHg 91%
16:00 0°C° 0 mm 4 mps 738 mmHg 89%
17:00 0°C° 0 mm 4 mps 739 mmHg 89%
18:00 -1°C° 0 mm 4 mps 739 mmHg 89%
19:00 -1°C° 0 mm 5 mps 739 mmHg 89%
20:00 -1°C° 0 mm 5 mps 740 mmHg 89%
21:00 -1°C° 0 mm 4 mps 740 mmHg 89%
22:00 -1°C° 0 mm 4 mps 740 mmHg 89%
23:00 -2°C° 0 mm 4 mps 741 mmHg 89%
Show more

We Need Your Consent

Meteoprog and our Service Providers may store and access personal data such as cookies, device identifiers or other similar technologies on your device and process such data to personalise content and ads, as well as provide social media features and to analyse the traffic.

  • Store and/or access information on your device

    Cookies, device identifiers or other information can be stored or accessed on your device for the purposes indicated above.

  • Personalised ads and content, ad and content measurement, audience insights, and products development

    Ads and content can be personalised based on a profile. More data can be added to better personalise ads and content. Ad and content performance can be measured. Insights about the audience who saw the ads and content can be derived. Such data can be used to develop or improve user’s experience, systems and software.

By clicking ‘I Agree’ you will allow the use of indicated cookies, device identifiers, web beacons or other similar technologies. Your settings can be changed in the browser on your device.

For certain purposes, legitimate interests may be relied on, rather than consent. You can read more about this in our Privacy and Cookie Policy.